Regional Weather Roundup
Issued by NWS

Home | Current Version | Previous Version | Text Only | Print | Product List | Glossary On
Versions: 1 2 3 4 5 6 7 8 9 10 11 12 13 14 15 16 17 18 19 20 21 22 23 24 25 26 27 28 29 30 31 32 33 34 35 36 37 38 39 40 41 42 43 44 45 46 47 48
000
ASUS43 KDMX 071207
RWRIA

WEATHER ROUNDUP FOR IOWA
NATIONAL WEATHER SERVICE DES MOINES IA
700 AM CDT TUE JUL 07 2015

NOTE: "FAIR" INDICATES FEW OR NO CLOUDS BELOW 12,000 FEET WITH NO
SIGNIFICANT WEATHER AND/OR OBSTRUCTIONS TO VISIBILITY.

* - THESE STATIONS ARE NOT NWS STATIONS...THUS NOT UNDER NWS
QUALITY CONTROL.  THEY ALSO DO NOT REPORT WEATHER SUCH
AS PRECIPITATION OR FOG.

IAZ001>003-012>014-020>022-031>034-043>046-071300-
   NORTHWEST IOWA

CITY           SKY/WX    TMP DP  RH WIND       PRES   REMARKS
CARROLL *      SUNNY     54  50  87 N9        30.13R
CHEROKEE *     SUNNY     51  50  95 N6        30.16R
DENISON *      SUNNY     54  48  82 N6        30.13R
LE MARS *      CLEAR     52  50  93 CALM      30.18R
ORANGE CITY *  SUNNY     52  46  82 N8        30.17R
SHELDON *      SUNNY     50  50 100 N6        30.16R
SIOUX CITY     CLEAR     55  49  80 N7        30.17R
6HR MIN TEMP:  53; 6HR MAX TEMP:  59;

SPENCER        SUNNY     50  46  86 NW5       30.16R
6HR MIN TEMP:  45; 6HR MAX TEMP:  53;

STORM LAKE *   SUNNY     54  48  82 N14       30.15R
$$

IAZ055>058-069>071-079>083-090>094-071300-
   SOUTHWEST IOWA

CITY           SKY/WX    TMP DP  RH WIND       PRES   REMARKS
ATLANTIC *     SUNNY     54  50  87 N8        30.13R
AUDUBON *      SUNNY     54  48  82 N8        30.14R
CLARINDA *     SUNNY     57  52  82 N13       30.11R
COUNCIL BLFS * CLEAR     54  50  87 N8        30.14R
CRESTON *      SUNNY     55  52  88 N14       30.09R
HARLAN  *      SUNNY     54  54 100 N8        30.17R
LAMONI         MOSUNNY   59  54  83 N14       30.06R
6HR MIN TEMP:  59; 6HR MAX TEMP:  66;

RED OAK *      CLEAR     55  50  82 N13       30.12R
SHENANDOAH *   CLEAR     55  52  88 N6        30.12R
$$

IAZ047>049-059>061-072>074-084-071300-
   CENTRAL IOWA

CITY           SKY/WX    TMP DP  RH WIND       PRES   REMARKS
AMES           SUNNY     54  50  86 N14       30.08R
6HR MIN TEMP:  54; 6HR MAX TEMP:  64;

ANKENY *       MOSUNNY   57  52  82 N9        30.07R
CHARITON *     SUNNY     57  55  94 N7        30.06R
DES MOINES     PTSUNNY   59  51  75 N14       30.07R
6HR MIN TEMP:  58; 6HR MAX TEMP:  66;

GRINNELL*      SUNNY     56  53  89 N12       30.06R
KNOXVILLE *    SUNNY     59  54  82 N10G17    30.04R
MARSHALLTOWN   SUNNY     55  52  89 N13       30.06R
6HR MIN TEMP:  55; 6HR MAX TEMP:  61;

PELLA *        SUNNY     58  57  97 N7        30.06R
PERRY *          N/A     55  50  82 N9        30.11R
$$

IAZ004>006-015-016-023>025-035-036-071300-
   NORTH CENTRAL IOWA

CITY           SKY/WX    TMP DP  RH WIND       PRES   REMARKS
ALGONA *       SUNNY     54  48  82 N9        30.13R
CLARION *      SUNNY     52  48  87 N8        30.11R
ESTHERVILLE    SUNNY     50  47  89 N9        30.14R
6HR MIN TEMP:  48; 6HR MAX TEMP:  53;

FORT DODGE *   SUNNY     52  46  82 N5        30.13R
MASON CITY     SUNNY     53  50  89 N8        30.12R
6HR MIN TEMP:  51; 6HR MAX TEMP:  58;

FOREST CITY *  SUNNY     52  48  87 N10       30.12R
IOWA FALLS *     N/A     55  50  82 N9        30.10R
$$

IAZ007>011-017>019-026>030-037>042-050>054-066-071300-
   NORTHEAST IOWA

CITY           SKY/WX    TMP DP  RH WIND       PRES   REMARKS
CEDAR RAPIDS   MOSUNNY   59  58  96 N10       30.01R FOG
6HR MIN TEMP:  58; 6HR MAX TEMP:  64;

CHARLES CITY * SUNNY     54  52  94 N13       30.09R
CLINTON *      SUNNY     61  55  82 N12       30.00R
DECORAH *        N/A    N/A N/A N/A MISG        N/A
DUBUQUE        PTSUNNY   58  54  86 N13       30.01R FOG
6HR MIN TEMP:  57; 6HR MAX TEMP:  62;

MONTICELLO *   SUNNY     59  59 100 VRB7      30.01R FOG
OELWEIN *        N/A     55  52  88 N9        30.06R
WATERLOO       SUNNY     56  51  84 N12       30.05R
6HR MIN TEMP:  55; 6HR MAX TEMP:  61;

$$

IAZ064-065-067-068-078-071300-
   EAST CENTRAL IOWA

CITY           SKY/WX    TMP DP  RH WIND       PRES   REMARKS
DAVENPORT      MOSUNNY   60  57  89 N8        29.98R FOG
6HR MIN TEMP:  59; 6HR MAX TEMP:  65;

IOWA CITY      SUNNY     62  55  77 N10       30.01S HAZE
6HR MIN TEMP:  62; 6HR MAX TEMP:  68;

MT. PLEASANT * CLOUDY    64  58  80 N8        29.99R HAZE
MUSCATINE *    SUNNY     63  57  82 N10       30.00R HAZE
QUAD CITIES    PTSUNNY   63  57  81 N7        29.97R HAZE
6HR MIN TEMP:  63; 6HR MAX TEMP:  66; 6HR PCP:  0.05;

$$

IAZ062-063-075>077-085>089-095>099-071300-
   SOUTHEAST IOWA

CITY           SKY/WX    TMP DP  RH WIND       PRES   REMARKS
BURLINGTON     CLOUDY    63  60  90 N9        29.97R FOG
6HR MIN TEMP:  63; 6HR MAX TEMP:  71; 6HR PCP:  0.02;

FAIRFIELD *    MOSUNNY   61  57  88 N12G20    30.01R HAZE
FORT MADISON * CLOUDY    63  61  94 N10       29.98R FOG
KEOKUK *       CLOUDY    63  61  94 N9        29.97R FOG
OSKALOOSA *      N/A     59  57  94 N9        30.04R FOG
CENTERVILLE *  MOSUNNY   61  59  94 N9        30.05R
OTTUMWA        PTSUNNY   60  59  96 N10       30.01R FOG
6HR MIN TEMP:  60; 6HR MAX TEMP:  64;

WASHINGTON *   SUNNY     61  59  94 N9        30.02R FOG
$$

ABBREVIATIONS USED IN REMARKS
   TC - TEMPERATURES IN CELSIUS
  WCI - WIND CHILL INDEX
   HX - HEAT INDEX
  VSB - VISIBILITY
$$




USA.gov is the U.S. government's official web portal to all federal, state and local government web resources and services.